ハートレー第2彗星

103P/Hartley 2 (2004)

English version
Home page
Updated on November 28, 2010

---------------------------------------------------------------------

・ プロフィール

・ 軌道要素

Epoch 2004 June 4.0 TT = JDT 2453160.5
T 2004 May 17.94272 TT                                  MPC
q   1.0362640            (2000.0)            P               Q
n   0.15390232     Peri.  180.80998     +0.75829908     -0.63421461
a   3.4485719      Node   219.89789     +0.59942745     +0.76929029
e   0.6995092      Incl.   13.60186     +0.25626009     +0.07722874
P   6.40
From 3810 observations 1997 May 2-2010 Nov. 23, mean residual 0".60.  Non-
   gravitational parameters A1 = +0.23 +/- 0.00, A2 = +0.0284 +/- 0.0001.

・ 星図

・ 光度変化

        m1 =  8.7 + 5 logΔ + 20.0 log r(t - 20)  [   ,120]  (              〜2004年 9月14日)
        m1 = 10.5 + 5 logΔ + 10.0 log r          [120,   ]  (2004年 9月14日〜              )

---------------------------------------------------------------------

軌道要素はM.P.E.C. 2010-W22に掲載されたものです。
星図は StellaNavigator Ver.2.0 for Windows (アストロアーツ編著 / アスキー出版局刊) で作成したものです。
光度グラフはComet for Windowsで作成したものです。

---------------------------------------------------------------------

Copyright(C) Seiichi Yoshida (comet@aerith.net). All rights reserved.